User: anonymous   Login
Location: Carabito
(9.8355°N, 67.9249°W)
Time: 14:45:15
(UTC+00:00)
Language:

SEDSat Delta rocket - Orbit

View from above orbital plane
View from above orbital plane
View from above satellite
View from above satellite

Ground track
Ground track

The orbit data is extracted from the following two-line orbital elements,

1 25510U 98061C   24195.89535063  .00001855  00000-0  30307-3 0  9992
2 25510  31.4353  63.7225 0316060 341.0662  17.8439 14.40685050349996
Epoch (UTC): 13 July 2024 21:29:18
Eccentricity: 0.0316060
inclination: 31.4353°
perigee height: 531 km
apogee height: 982 km
right ascension of ascending node: 63.7225°
argument of perigee: 341.0662°
revolutions per day: 14.40685050
mean anomaly at epoch: 17.8439°
orbit number at epoch: 34999

The dashed part of the orbit path shows where the satellite is in the earth's shadow,  

DLR